Location: Beadle
(51.4667°N, 109.0000°W)
Time: 17:44:42
(UTC+00:00)

DIWATA 2B (PO-101) - Pass Details

Date: 29 June 2022
Orbit: 583 x 599 km, 98.0° (Epoch: 19 August)

Event Time Altitude Azimuth Distance (km) Brightness Sun altitude
Exits shadow 09:24:23 12° 186° (S) 1,789 ? -10.4°
Maximum altitude 09:28:06 49° 260° (W) 777 ? -10.2°
Drops below altitude 10° 09:32:14 10° 336° (NNW) 1,954 ? -9.8°
Sets 09:34:28 0° 342° (NNW) 2,861 ? -9.7°
